You are listening to:
LKPR Approach - Prague, Czech Republic

LKPR 121800Z 22006KT 140V240 CAVOK 16/04 Q1028 NOSIG

If stream doesn't start automatically press the play button
If stream stops then reload player then press play